Home   Weather   Salzwedel   Past weeks

Flag for Germany Past Weather in Salzwedel, Saxony-Anhalt, Germany — Yesterday and Last 2 Weeks

Now
48 °F

Scattered clouds.


Feels Like: 46 °F
Forecast: 33 / 56 °F
Wind: 5 mph from North

Location: Fassberg

Current Time: Apr 29, 2017 at 7:55:40 pm

Latest Report: Apr 29, 2017 at 7:20 pm


Visibility: N/A

Pressure: 30.07 "Hg

Humidity: 54%

Dew Point: 32 °F

Location of SalzwedelLocation

Past Weather in Salzwedel — Graph

°F

Salzwedel Temperature Yesterday

Maximum temperature yesterday: 52 °F (at 1:20 pm)
Minimum temperature yesterday: 27 °F (at 5:20 am)
Average temperature yesterday: 42 °F

High & Low Weather Summary for the Past Weeks

 TemperatureHumidityPressure
High57 °F (Apr 21, 2:20 pm)100% (Apr 17, 3:20 am)30.63 "Hg (Apr 17, 3:20 am)
Low21 °F (Apr 20, 5:20 am)30% (Apr 27, 4:20 pm)29.59 "Hg (Apr 25, 5:20 am)
Average41 °F74%30.05 "Hg
* Reported Apr 14 6:20 pm — Apr 29 6:20 pm, Salzwedel, Weather by CustomWeather, © 2017

Note: Actual official high and low records may vary slightly from our data, if they occured in-between our weather recording intervals... More about our weather records

Advertising

Salzwedel Weather History for the Previous 24 Hours

Scroll right to see more
 ConditionsComfort  
Time TempWeatherWind HumidityBarometerVisibility
6:20 pm
Sat, Apr 29
50 °FScattered clouds.7 mph50%30.07 "HgN/A
5:20 pm50 °FBroken clouds.12 mph50%30.04 "HgN/A
4:20 pm50 °FPartly sunny.9 mph50%30.04 "HgN/A
3:20 pm48 °FBroken clouds.10 mph58%30.04 "HgN/A
2:20 pm50 °FScattered clouds.10 mph50%30.04 "HgN/A
1:20 pm46 °FBroken clouds.14 mph57%30.04 "HgN/A
12:20 pm48 °FScattered clouds.8 mph54%30.01 "HgN/A
11:20 am46 °FScattered clouds.10 mph53%30.04 "HgN/A
10:20 am45 °FScattered clouds.10 mph71%30.01 "HgN/A
9:20 am43 °FPassing clouds.10 mph76%30.01 "HgN/A
8:20 am41 °FPassing clouds.7 mph81%30.01 "HgN/A
7:20 am39 °FScattered clouds.5 mph87%30.01 "HgN/A
6:20 am37 °FFog.5 mph93%30.01 "HgN/A
5:20 am36 °FFog.3 mph100%29.98 "HgN/A
4:20 am37 °FFog.5 mph93%29.98 "HgN/A
3:20 am39 °FFog.7 mph93%29.98 "HgN/A
2:20 am39 °FFog.2 mph93%29.95 "HgN/A
1:20 am41 °FFog.5 mph93%29.95 "HgN/A
12:20 am41 °FPassing clouds.5 mph93%29.95 "HgN/A
11:20 pm
Fri, Apr 28
43 °FPartly cloudy.7 mph93%29.95 "HgN/A
10:20 pm43 °FPassing clouds.5 mph93%29.92 "HgN/A
9:20 pm43 °FFog.No wind93%29.92 "Hg5 mi
8:40 pm45 °FFog.1 mph87%29.92 "Hg4 mi
8:20 pm45 °FLight rain. Partly sunny.5 mph87%29.92 "Hg5 mi
8:02 pm45 °FRain. Fog.6 mph87%29.92 "Hg3 mi
7:20 pm43 °FSprinkles. Partly sunny.10 mph87%29.92 "HgN/A
Weather by CustomWeather, © 2017

See weather overviewHow to use our weather pages